Location: Sungai Ketit
(2.6833°N, 113.2333°E)
Time: 21:17:29
(UTC+00:00)

Cosmos 1271 Rocket - Pass Details

Date: 23 May 2024
Orbit: 471 x 509 km, 81.2° (Epoch: 19 June)

Event Time Altitude Azimuth Distance (km) Brightness Sun altitude
Rises 11:42:10 0° 339° (NNW) 2,512 6.9 -17.2°
Reaches altitude 10° 11:44:24 10° 328° (NNW) 1,642 6.0 -17.8°
Maximum altitude 11:47:36 31° 265° (W) 869 4.4 -18.5°
Drops below altitude 10° 11:50:51 10° 202° (SSW) 1,667 5.3 -19.2°
Enters shadow 11:52:31 - 193° (SSW) 2,311 5.9 -19.6°
